Regional Weather Roundup
Issued by NWS Bismarck, ND

Home | Current Version | Previous Version | Text Only | Print | Product List | Glossary On
Versions: 1 2 3 4 5 6 7 8 9 10 11 12 13 14 15 16 17 18 19 20 21 22 23 24 25 26 27 28 29 30 31 32 33 34 35 36 37 38 39 40 41 42 43 44 45 46 47 48 49 50
000
ASUS43 KBIS 241010
RWRBIS

NWR BROADCAST TEXT
NATIONAL WEATHER SERVICE BISMARCK ND
400 AM CST FRI FEB 24 2017

NOTE: "FAIR" INDICATES FEW OR NO CLOUDS BELOW 12,000 FEET WITH NO
SIGNIFICANT WEATHER AND/OR OBSTRUCTIONS TO VISIBILITY.


CITY           SKY/WX    TMP DP  RH WIND       PRES   REMARKS
WILLISTON      CLOUDY    14  11  87 CALM      30.14F
MINOT          FAIR      23  18  81 NW9       30.12S WCI  13
MINOT AFB      NOT AVBL
BISMARCK       FAIR      15  11  83 W3        30.13F
DICKINSON      FAIR       7   3  84 SW3       30.07F
GARRISON         N/A     16  12  84 W5        30.12F WCI   9
HETTINGER ARPT FAIR      12   8  84 N7        30.08F WCI   1
JAMESTOWN      FAIR      18  15  88 N13       30.07F WCI   5
CARRINGTON     CLOUDY    19  16  86 NW9       30.12F WCI   9
HAZEN            N/A    N/A N/A N/A SW7       30.16F
MANDAN         FAIR      14  10  85 NW10      30.12F WCI   1
RUGBY            N/A      9   9 100 NW3       30.12S
STANLEY        FLURRIES  21  19  93 NW3       30.13S
TIOGA          CLOUDY    19  19 100 CALM      30.12F
WATFORD CITY   PTSUNNY    9   9 100 CALM      30.14F
$$

CITY           SKY/WX    TMP DP  RH WIND       PRES   REMARKS
GRAND FORKS    CLOUDY    17  10  74 N8        30.13F WCI   7
GRAND FORKS AF CLOUDY    18  13  80 N8        30.13F WCI   7
DEVILS LAKE    CLOUDY    18  14  84 W6        30.11F WCI  10
FARGO          FAIR      20  12  71 N14       30.09R WCI   7
CAVALIER         N/A     14  10  85 E3        30.16F
GRAFTON        CLOUDY    16  14  93 N6        30.17F WCI   7
GWINNER        FAIR      21  18  86 N15       30.07R WCI   8
ROLLA          FAIR      16  10  79 NW15      30.10S WCI   1
$$

CITY           SKY/WX    TMP DP  RH WIND       PRES   REMARKS
ABERDEEN       MOCLDY    20  13  74 N21G32    30.05S WCI   4
MOBRIDGE       FAIR      21  14  74 N9        30.06S WCI  11
BUFFALO          N/A     15  11  83 E7        29.98S WCI   5
RAPID CITY     LGT SNOW  22  20  92 N15       29.98F FOG     WCI   9
GLASGOW        CLOUDY    23  18  81 SE10      30.08F WCI  12
SIDNEY         FAIR      19  15  84 SE5       30.14F WCI  12
WOLF POINT     CLOUDY    26  20  77 E5        30.12F
GLENDIVE       CLOUDY    24  21  88 E9        30.09F WCI  14
MILES CITY     CLOUDY    28  21  75 E7        30.04F
BAKER          FAIR      17  10  74 E12       30.05F WCI   4
$$

CITY           SKY/WX    TMP DP  RH WIND       PRES   REMARKS
BILLINGS       FLURRIES  25  24  96 NE7       29.94S WCI  17
GREAT FALLS    CLOUDY    23  20  88 CALM      29.95S
REGINA         PTCLDY    19  18  93 SW7       30.09F WCI  10
ESTEVAN        MOCLDY    21  18  86 SW5       30.12F WCI  15
$$





USA.gov is the U.S. government's official web portal to all federal, state and local government web resources and services.